EW1845 Weather Reports


Display with metric or nautical units.
time (UTC)temp
F
wind
direction
speed
MPH
gust
MPH
rain 1hr
in
rain 24hr
in
rain mn
in
humidity
%
barometer
mb
20260904044649 62 229 0.0 0.0 0.00 0.00 0.00 87 1011.2
20260904044605 62 229 0.0 1.0 0.00 0.00 0.00 87 1011.3
20260904043631 63 229 0.0 0.0 0.00 0.00 0.00 87 1011.1
20260904043006 62 229 0.0 1.0 0.00 0.00 0.00 87 1011.1
20260904042557 62 229 0.0 0.0 0.00 0.00 0.00 87 1011.1
20260904041618 63 229 0.0 0.0 0.00 0.00 0.00 87 1011.1
20260904041604 62 229 0.0 1.0 0.00 0.00 0.00 87 1011.1
20260904040547 63 229 0.0 0.0 0.00 0.00 0.00 86 1011.0
20260904040103 63 229 0.0 1.0 0.00 0.00 0.00 87 1011.0
20260904035539 63 229 0.0 0.0 0.00 0.00 0.00 86 1011.0
20260904034551 64 229 0.0 0.0 0.00 0.00 0.00 85 1010.8
20260904034502 63 229 0.0 0.0 0.00 0.00 0.00 85 1010.8
20260904033613 64 229 0.0 0.0 0.00 0.00 0.00 85 1010.7
20260904033103 64 229 0.0 0.0 0.00 0.00 0.00 85 1010.7
20260904032625 65 229 0.0 0.0 0.00 0.00 0.00 84 1010.5
20260904031600 66 229 0.0 0.0 0.00 0.00 0.00 84 1010.5
20260904031504 65 229 0.0 1.0 0.00 0.00 0.00 84 1010.6
20260904030605 66 229 0.0 2.0 0.00 0.00 0.00 84 1010.4
20260904030004 66 259 0.0 3.0 0.00 0.00 0.00 84 1010.5
20260904024502 67 241 0.0 2.0 0.00 0.00 0.00 81 1010.4
20260904024452 67 241 0.0 0.0 0.00 0.00 0.00 81 1010.4
20260904023441 67 212 0.0 3.0 0.00 0.00 0.00 80 1010.4
20260904023120 67 150 0.0 4.0 0.00 0.00 0.00 79 1010.4
20260904022438 68 217 0.0 3.0 0.00 0.00 0.00 79 1010.3
20260904021509 68 173 1.0 3.0 0.00 0.00 0.00 78 1010.2
20260904021407 68 217 0.0 2.0 0.00 0.00 0.00 78 1010.2
20260904020002 68 136 0.0 5.0 0.00 0.00 0.00 77 1010.4
20260904015235 69 188 0.0 4.0 0.00 0.00 0.00 76 1010.4
20260904014504 69 142 2.0 5.0 0.00 0.00 0.00 75 1010.4
20260904014258 70 196 1.0 5.0 0.00 0.00 0.00 75 1010.4
20260904013258 70 229 1.0 6.0 0.00 0.00 0.00 74 1010.3
20260904013126 70 153 0.0 7.0 0.00 0.00 0.00 74 1010.4
20260904012320 71 238 1.0 6.0 0.00 0.00 0.00 74 1010.3
20260904011502 70 219 2.0 7.0 0.00 0.00 0.00 73 1010.5
20260904011246 71 223 2.0 7.0 0.00 0.00 0.00 72 1010.4
20260904010242 72 234 2.0 7.0 0.00 0.00 0.00 72 1010.4
20260904010003 71 221 3.0 8.0 0.00 0.00 0.00 72 1010.5
20260904005218 72 206 2.0 6.0 0.00 0.00 0.00 71 1010.4
20260904004658 72 207 2.0 6.0 0.00 0.00 0.00 71 1010.4
20260904004216 72 128 2.0 6.0 0.00 0.00 0.00 71 1010.4
20260904003223 73 226 1.0 7.0 0.00 0.00 0.00 70 1010.5
20260904003005 73 127 2.0 7.0 0.00 0.00 0.00 70 1010.5
20260904002228 73 177 2.0 10.0 0.00 0.00 0.00 71 1010.5
20260904001610 73 169 3.0 8.0 0.00 0.00 0.00 69 1010.6
20260904001153 74 148 3.0 10.0 0.00 0.00 0.00 69 1010.5
20260904000103 73 240 3.0 8.0 0.00 0.00 0.00 70 1010.6
20260903235048 75 209 3.0 10.0 0.00 0.00 0.00 67 1010.6
20260903234503 74 191 3.0 11.0 0.00 0.00 0.00 68 1010.6
20260903234034 75 226 3.0 10.0 0.00 0.00 0.00 68 1010.6
20260903233102 75 205 2.0 7.0 0.00 0.00 0.00 67 1010.7
20260903233040 76 202 3.0 13.0 0.00 0.00 0.00 67 1010.7
20260903232031 76 244 3.0 13.0 0.00 0.00 0.00 65 1010.8
20260903231503 76 150 2.0 10.0 0.00 0.00 0.00 65 1010.8
20260903230956 77 207 3.0 10.0 0.00 0.00 0.00 65 1010.8
20260903230105 76 183 5.0 12.0 0.00 0.00 0.00 65 1010.9
20260903224902 76 212 4.0 10.0 0.00 0.00 0.00 65 1011.0
20260903224503 76 183 3.0 10.0 0.00 0.00 0.00 65 1011.1
20260903223912 76 155 4.0 10.0 0.00 0.00 0.00 65 1011.0
20260903223112 76 268 5.0 9.0 0.00 0.00 0.00 64 1011.2
20260903221733 77 109 3.0 12.0 0.00 0.00 0.00 63 1011.3
20260903221503 77 236 4.0 10.0 0.00 0.00 0.00 63 1011.4
20260903220715 77 179 3.0 12.0 0.00 0.00 0.00 64 1011.3
20260903220003 76 189 4.0 13.0 0.00 0.00 0.00 65 1011.5
20260903215701 76 231 5.0 11.0 0.00 0.00 0.00 65 1011.5
20260903214656 77 181 4.0 11.0 0.00 0.00 0.00 64 1011.5
20260903214602 76 288 4.0 11.0 0.00 0.00 0.00 65 1011.5
20260903213637 77 159 4.0 13.0 0.00 0.00 0.00 65 1011.5
20260903213003 76 205 3.0 8.0 0.00 0.00 0.00 65 1011.5
20260903211603 76 195 3.0 10.0 0.00 0.00 0.00 65 1011.6
20260903211500 76 221 4.0 9.0 0.00 0.00 0.00 65 1011.6
20260903210434 77 212 5.0 10.0 0.00 0.00 0.00 64 1011.7
20260903205457 78 217 4.0 11.0 0.00 0.00 0.00 63 1011.8
20260903204504 78 231 4.0 11.0 0.00 0.00 0.00 62 1011.8
20260903204502 77 231 7.0 12.0 0.00 0.00 0.00 62 1011.9
20260903203517 78 146 2.0 11.0 0.00 0.00 0.00 62 1011.7
20260903203102 78 200 3.0 8.0 0.00 0.00 0.00 61 1011.8
20260903202523 78 162 4.0 11.0 0.00 0.00 0.00 63 1011.7
20260903201546 79 248 4.0 11.0 0.00 0.00 0.00 60 1011.7
20260903201502 79 251 3.0 12.0 0.00 0.00 0.00 60 1011.9
20260903200549 80 223 3.0 8.0 0.00 0.00 0.00 59 1011.9
20260903200002 79 212 6.0 9.0 0.00 0.00 0.00 57 1012.0
20260903195519 80 49 2.0 11.0 0.00 0.00 0.00 54 1012.0
20260903194504 80 254 1.0 11.0 0.00 0.00 0.00 52 1012.1
20260903193435 79 184 1.0 9.0 0.00 0.00 0.00 53 1012.4
20260903193105 78 217 1.0 8.0 0.00 0.00 0.00 53 1012.6
20260903192459 78 190 3.0 9.0 0.00 0.00 0.00 56 1012.5
20260903191516 78 217 2.0 9.0 0.00 0.00 0.00 58 1012.6
20260903191502 77 193 4.0 10.0 0.00 0.00 0.00 57 1012.7
20260903190450 78 257 3.0 9.0 0.00 0.00 0.00 56 1012.8
20260903184608 77 198 2.0 8.0 0.00 0.00 0.00 58 1013.1
20260903184334 77 189 1.0 6.0 0.00 0.00 0.00 56 1013.1
20260903183345 76 203 2.0 7.0 0.00 0.00 0.00 60 1013.2
20260903183009 75 191 2.0 8.0 0.00 0.00 0.00 60 1013.2
20260903182338 76 214 1.0 7.0 0.00 0.00 0.00 59 1013.3
20260903181602 76 162 2.0 7.0 0.00 0.00 0.00 59 1013.4
20260903180243 76 174 1.0 4.0 0.00 0.00 0.00 60 1013.5
20260903180111 75 227 0.0 6.0 0.00 0.00 0.00 60 1013.5
20260903175209 75 159 2.0 7.0 0.00 0.00 0.00 65 1013.5
20260903174502 73 153 2.0 8.0 0.00 0.00 0.00 66 1013.6
20260903173110 72 212 4.0 8.0 0.00 0.00 0.00 66 1013.5
20260903173016 73 175 2.0 7.0 0.00 0.00 0.00 66 1013.5
20260903172040 72 195 1.0 7.0 0.00 0.00 0.00 70 1013.4
20260903171502 71 292 1.0 7.0 0.00 0.00 0.00 72 1013.6
20260903171031 71 138 2.0 7.0 0.00 0.00 0.00 73 1013.6
20260903170035 72 244 1.0 10.0 0.00 0.00 0.00 70 1013.5
20260903170002 71 165 1.0 5.0 0.00 0.00 0.00 71 1013.5
20260903165051 71 171 2.0 10.0 0.00 0.00 0.00 71 1013.4
20260903164604 71 186 4.0 11.0 0.00 0.00 0.00 71 1013.5
20260903163003 70 63 2.0 7.0 0.00 0.00 0.00 73 1013.6
20260903162825 70 65 2.0 6.0 0.00 0.00 0.00 74 1013.6
20260903161849 69 197 0.0 3.0 0.00 0.00 0.00 77 1013.5
20260903161603 68 156 0.0 6.0 0.00 0.00 0.00 79 1013.6
20260903160843 68 1 0.0 1.0 0.00 0.00 0.00 80 1013.6
20260903160004 67 45 0.0 4.0 0.00 0.00 0.00 80 1013.6
20260903155820 68 0 0.0 0.0 0.00 0.00 0.00 81 1013.6
20260903154824 67 143 1.0 6.0 0.00 0.00 0.00 82 1013.6
20260903154605 66 208 1.0 7.0 0.00 0.00 0.00 83 1013.6
20260903152721 65 208 0.0 2.0 0.00 0.00 0.00 84 1013.6
20260903151740 65 184 0.0 1.0 0.00 0.00 0.00 85 1013.5
20260903151602 65 231 1.0 2.0 0.00 0.00 0.00 86 1013.5
20260903150105 64 25 0.0 1.0 0.00 0.00 0.00 87 1013.4
20260903145611 64 41 0.0 0.0 0.00 0.00 0.00 87 1013.4
20260903144554 64 41 0.0 0.0 0.00 0.00 0.00 87 1013.3
20260903144507 64 41 0.0 0.0 0.00 0.00 0.00 87 1013.4
20260903143538 64 41 0.0 0.0 0.00 0.00 0.00 87 1013.2
20260903143103 63 41 0.0 1.0 0.00 0.00 0.00 88 1013.2
20260903142518 63 41 0.0 1.0 0.00 0.00 0.00 89 1013.2
20260903141526 63 39 0.0 0.0 0.00 0.00 0.00 90 1013.1
20260903141502 62 39 0.0 1.0 0.00 0.00 0.00 90 1013.1
20260903140524 62 39 0.0 0.0 0.00 0.00 0.00 89 1013.0
20260903140010 62 38 0.0 1.0 0.00 0.00 0.00 88 1013.0
20260903135454 63 39 0.0 0.0 0.00 0.00 0.00 88 1012.9
20260903134633 63 38 0.0 1.0 0.00 0.00 0.00 88 1012.9
20260903134505 63 39 0.0 0.0 0.00 0.00 0.00 88 1012.8
20260903133003 63 40 0.0 3.0 0.00 0.00 0.00 88 1012.9
20260903132333 64 34 0.0 1.0 0.00 0.00 0.00 88 1012.8
20260903131602 63 48 0.0 2.0 0.00 0.00 0.00 88 1012.9
20260903131321 64 48 0.0 1.0 0.00 0.00 0.00 88 1012.9
20260903130326 64 44 0.0 2.0 0.00 0.00 0.00 88 1012.9
20260903130109 63 44 0.0 3.0 0.00 0.00 0.00 89 1013.0
20260903125342 64 49 0.0 1.0 0.00 0.00 0.00 89 1012.8
20260903124503 63 41 0.0 3.0 0.00 0.00 0.00 89 1012.9
20260903123108 63 44 0.0 2.0 0.00 0.00 0.00 89 1012.9
20260903122113 64 18 0.0 0.0 0.00 0.00 0.00 89 1012.8
20260903121505 63 20 0.0 1.0 0.00 0.00 0.00 90 1012.9
20260903120004 63 20 2.0 5.0 0.00 0.00 0.00 90 1012.9
20260903115957 64 32 0.0 4.0 0.00 0.00 0.00 90 1012.8
20260903115013 63 36 0.0 0.0 0.00 0.00 0.00 89 1013.0
20260903114607 63 37 0.0 5.0 0.00 0.00 0.00 90 1013.0
20260903114000 63 40 1.0 3.0 0.00 0.00 0.00 90 1013.1
20260903113013 63 337 1.0 4.0 0.00 0.00 0.00 90 1013.0
20260903113004 63 355 1.0 3.0 0.00 0.00 0.00 90 1013.0
20260903111602 63 69 0.0 4.0 0.00 0.00 0.00 89 1013.1
20260903110105 63 45 1.0 4.0 0.00 0.00 0.00 89 1013.1
20260903105719 64 27 0.0 6.0 0.00 0.00 0.00 88 1013.1
20260903104655 64 34 1.0 5.0 0.00 0.00 0.00 88 1013.2
20260903104503 63 49 2.0 5.0 0.00 0.00 0.00 88 1013.2
20260903103701 64 51 1.0 5.0 0.00 0.00 0.00 88 1013.2
20260903103102 63 352 1.0 5.0 0.00 0.00 0.00 88 1013.3
20260903102705 64 342 0.0 3.0 0.00 0.00 0.00 88 1013.2
20260903101507 63 34 0.0 3.0 0.00 0.00 0.00 88 1013.2
20260903100524 64 43 1.0 4.0 0.00 0.00 0.00 87 1013.2
20260903100003 63 35 2.0 4.0 0.00 0.00 0.00 87 1013.3
20260903095501 63 36 0.0 4.0 0.00 0.00 0.00 86 1013.3
20260903094605 63 39 0.0 4.0 0.00 0.00 0.00 86 1013.3
20260903094456 63 44 0.0 0.0 0.00 0.00 0.00 86 1013.3
20260903093002 63 60 0.0 4.0 0.00 0.00 0.00 86 1013.5
20260903092313 64 52 2.0 9.0 0.00 0.00 0.00 86 1013.5
20260903091603 63 39 3.0 6.0 0.00 0.00 0.00 87 1013.6
20260903091246 63 70 0.0 1.0 0.00 0.00 0.00 86 1013.5
20260903090253 63 43 0.0 0.0 0.00 0.00 0.00 85 1013.6
20260903090103 63 43 0.0 3.0 0.00 0.00 0.00 85 1013.6
20260903084502 63 62 0.0 3.0 0.00 0.00 0.00 85 1013.8
20260903084057 63 45 0.0 1.0 0.00 0.00 0.00 85 1013.8
20260903083103 62 70 0.0 2.0 0.00 0.00 0.00 85 1013.8
20260903083023 63 75 0.0 0.0 0.00 0.00 0.00 85 1013.8
20260903082002 63 200 0.0 0.0 0.00 0.00 0.00 84 1013.8
20260903081503 62 37 0.0 4.0 0.00 0.00 0.00 85 1013.9
20260903080954 63 97 0.0 3.0 0.00 0.00 0.00 85 1014.0
20260903080002 62 350 0.0 1.0 0.00 0.00 0.00 84 1014.0
20260903075944 63 350 0.0 0.0 0.00 0.00 0.00 84 1013.9
20260903074956 63 337 0.0 0.0 0.00 0.00 0.00 82 1014.0
20260903074637 62 337 0.0 5.0 0.00 0.00 0.00 82 1014.0
20260903073115 63 291 0.0 1.0 0.00 0.00 0.00 81 1014.0
20260903072840 63 291 0.0 0.0 0.00 0.00 0.00 81 1013.9
20260903071503 63 290 0.0 1.0 0.00 0.00 0.00 80 1014.0
20260903070654 64 294 0.0 0.0 0.00 0.00 0.00 78 1013.9
20260903070008 63 191 0.0 0.0 0.00 0.00 0.00 77 1013.9
20260903065626 64 191 0.0 0.0 0.00 0.00 0.00 75 1013.9
20260903064616 63 219 0.0 0.0 0.00 0.00 0.00 76 1013.8
20260903064602 63 219 0.0 1.0 0.00 0.00 0.00 75 1013.9
20260903063002 62 219 0.0 1.0 0.00 0.00 0.00 75 1013.8
20260903062455 63 219 0.0 0.0 0.00 0.00 0.00 72 1013.8
20260903061615 63 219 0.0 1.0 0.00 0.00 0.00 73 1013.8
20260903061507 63 219 0.0 0.0 0.00 0.00 0.00 72 1013.7
20260903060433 64 219 0.0 0.0 0.00 0.00 0.00 71 1013.7
20260903060004 63 219 1.0 1.0 0.00 0.00 0.00 72 1013.7
20260903055440 64 219 0.0 0.0 0.00 0.00 0.00 71 1013.6
20260903054605 63 219 0.0 1.0 0.00 0.00 0.00 71 1013.6
20260903054442 64 219 0.0 0.0 0.00 0.00 0.00 72 1013.6
20260903053412 64 219 0.0 0.0 0.00 0.00 0.00 72 1013.6
20260903053002 63 219 0.0 1.0 0.00 0.00 0.00 72 1013.7
20260903051602 63 219 0.0 1.0 0.00 0.00 0.00 72 1013.6
20260903051241 64 219 0.0 0.0 0.00 0.00 0.00 71 1013.6
20260903050256 63 219 0.0 0.0 0.00 0.00 0.00 75 1013.6